OPS 7613 (P/L 5)

Satellite information

Favourite Embed

Satellite Type and Status

PAYLOADIN ORBIT

Key statistics

Satellite OPS 7613 (P/L 5) at a glance.

Uptime

20307

Days in orbit

Revolutions

≈ 14.0

Per day

Orbit

LEO

Low Earth Orbit

Inclination

70.0

Latest

Satellite identification and parameters

Extended collection of information and parameters for OPS 7613 (P/L 5).

Object identification

Identified? True

Debris? False

Object name: OPS 7613 (P/L 5)

International designator: 1969-082F

Object number (NORAD): 4247

Object ID (CCSDS): 4247

Country: UNITED STATES OF AMERICA (US)

Current information (Y/N): Y

RCS size: LARGE

Orbital parameters

Period: 103.159 minutes

Inclination: 70.0147 deg

SMA: 7286.138 km

Apoapsis: 924.53 km

Periapsis: 891.476 km

RAAN: 254.7088 deg

Eccentricy: 0.0022683

Argument of periapsis: 297.8093 deg

Mean anomaly: 62.0713 deg

Mean motion: 13.95907585 rev/day

Mean motion (dot): 0.00000097 rev/day2

B* drag term: 0.00010966 1/REarth

Two-line elements (TLE)

Creation date: May 5, 2025, 2:11 a.m.

Reference frame: TEME

Reference center: EARTH

Epoch: May 4, 2025, 8:31 p.m. UTC

TLE line 0: 0 OPS 7613 (P/L 5)

TLE line 1: 1 04247U 69082F 25124.85522179 .00000097 00000-0 10966-3 0 9996

TLE line 2: 2 04247 70.0147 254.7088 0022683 297.8093 62.0713 13.95907585829427

Live tracking on map

Real-time ground track for satellite OPS 7613 (P/L 5).

In-orbit conjunctions

There are no conjunctions computed for OPS 7613 (P/L 5), at the moment. Check back to stay up to date, as we update our databases every day.

Go to all conjunctions

Associated space launch

Poppy was the follow-on ELINT system, which succeeded the Grab ELINT satellite system.

OPS 7613 (P/L 5) was lifted into orbit during the mission ‘Thorad SLV-2G Agena D | Poppy 8A,B,C,D’, on board a Thorad SLV-2G Agena D space rocket.

The launch took place on Sept. 30, 1969, 1:40 p.m. from Space Launch Complex 1W.

For more information about the launch, click the button.

Launch to space Thorad SLV-2G Agena D | Poppy 8A,B,C,D
Thorad SLV-2G Agena D | Poppy 8A,B,C,D

Agency: N/A

Status: Launch Successful

Launch date: Sept. 30, 1969, 1:40 p.m. UTC

Rocket: Thorad SLV-2G Agena D

Launch pad: Space Launch Complex 1W

Location: Vandenberg SFB, CA, USA

...

Latest news about this satellite

There are no fresh news available about this satellite. Check back as we update our databases every day.


Newsletter sign-up

Weekly statistics, charts and insights to help you stay on top of the space industry.